Starlink 4358

operational
NORAD ID: 53225 Int'l Des: 2022-084 Owner: SPXS Country: US Constellation: starlink
LEOCIRCULARRETROGRADESSO

关于 Starlink 4358

正在加载描述...

实时位置

正在加载3D地球...

即将过境

高度历史

Altitude vs Time

uPlot chart will show altitude changes over time

两行轨道根数

1 53225U 22084AN 25308.16147074 .00000394 00000-0 31486-4 0 9993
2 53225 97.6033 7.4401 0001641 91.7744 268.3671 15.05648816180496
Epoch: Nov 4, 2025 • Age: 6 hours

当前状态

高度 578.4 km
速度 7.57 km/s
星下点 -77.75°S, 41.08°W
发射日期 Jul 22, 2022
运行时间 3.2 years
类型 internet

技术详情

分类 Payload
质量 297.00 kg
干质量 275.00 kg
总质量 297.00 kg
长度 0.20 m
直径 2.80 m
跨度 9.00 m
形状 Box + pan
制造商 SPXS
平台类型 Starlink
阶段状态 In Orbit
所有者/国家 SPXS/US

大型星座

Loading constellations...